DLH19L LBSF-EDDM

Flight info

Callsign DLH19L
Flight time 1h 39m
Altitude 36000
Route OGOTA4S/09 OGOTA T228 UTEKA DCT POZ DCT KOTUS DCT BABIT DCT SUNIS DCT AMADI Q113 NAPSA NAPSA4A
Aircraft A321/M-SDE3FGHIJ1J5J6J7M1RWXY/LB1

Departure

Time 2026-05-04 17:23
Airport Sofia Airport (LBSF)

Arrival

Time 2026-05-04 19:02
Airport Munich Airport (EDDM)
Time Latitude Longitude Altitude Speed Heading
2026-05-04 16:42 42.69076 23.41458 1749 ft 0 kts 256°
2026-05-04 17:11 42.69086 23.41503 1746 ft 3 kts 250°
2026-05-04 17:12 42.69093 23.41529 1742 ft 3 kts 251°
2026-05-04 17:12 42.69092 23.41587 1742 ft 3 kts 322°
2026-05-04 17:13 42.69113 23.41585 1744 ft 2 kts 341°
2026-05-04 17:14 42.69116 23.41584 1745 ft 0 kts 341°
2026-05-04 17:16 42.69137 23.41574 1746 ft 5 kts 341°
2026-05-04 17:17 42.69176 23.41556 1747 ft 7 kts 341°
2026-05-04 17:17 42.69365 23.41522 1748 ft 12 kts
2026-05-04 17:18 42.69452 23.41521 1741 ft 13 kts 339°
2026-05-04 17:18 42.69485 23.41276 1748 ft 15 kts 275°
2026-05-04 17:19 42.69504 23.40968 1747 ft 18 kts 275°
2026-05-04 17:19 42.69526 23.40589 1741 ft 25 kts 275°
2026-05-04 17:20 42.69559 23.40028 1746 ft 26 kts 274°
2026-05-04 17:20 42.69581 23.39623 1737 ft 11 kts 285°
2026-05-04 17:20 42.69644 23.39587 1742 ft 11 kts
2026-05-04 17:21 42.69763 23.39609 1747 ft 2 kts 44°
2026-05-04 17:21 42.69766 23.39662 1741 ft 0 kts 92°
2026-05-04 17:22 42.69751 23.39949 1742 ft 69 kts 95°
2026-05-04 17:23 42.69488 23.44268 2655 ft 174 kts 93°
2026-05-04 17:23 42.69385 23.45909 3431 ft 174 kts 94°
2026-05-04 17:23 42.69150 23.49491 4196 ft 212 kts 93°
2026-05-04 17:24 42.69014 23.51584 4498 ft 232 kts 92°
2026-05-04 17:24 42.71988 23.55984 6226 ft 254 kts 357°
2026-05-04 17:25 42.73717 23.55588 7117 ft 251 kts 348°
2026-05-04 17:25 42.76920 23.53777 8757 ft 256 kts 329°
2026-05-04 17:26 42.79876 23.50910 9882 ft 275 kts 330°
2026-05-04 17:26 42.84991 23.45934 10526 ft 335 kts 328°
2026-05-04 17:27 42.88921 23.42064 11374 ft 356 kts 328°
2026-05-04 17:27 42.92970 23.38045 12540 ft 365 kts 327°
2026-05-04 17:28 42.97135 23.33931 13743 ft 374 kts 328°
2026-05-04 17:29 43.03523 23.27615 15407 ft 384 kts 327°
2026-05-04 17:29 43.10088 23.21110 17063 ft 392 kts 327°
2026-05-04 17:30 43.16786 23.14453 18531 ft 402 kts 326°
2026-05-04 17:31 43.21306 23.09952 19403 ft 407 kts 326°
2026-05-04 17:31 43.28218 23.03059 20764 ft 412 kts 326°
2026-05-04 17:32 43.32875 22.98387 21675 ft 416 kts 325°
2026-05-04 17:33 43.39945 22.91294 22907 ft 423 kts 324°
2026-05-04 17:33 43.42324 22.88906 23325 ft 425 kts 324°
2026-05-04 17:34 43.49535 22.81642 24419 ft 431 kts 323°
2026-05-04 17:34 43.51931 22.79230 24721 ft 434 kts 323°
2026-05-04 17:35 43.59284 22.71802 25680 ft 441 kts 323°
2026-05-04 17:35 43.64285 22.66721 26306 ft 446 kts 323°
2026-05-04 17:35 43.66755 22.64209 26612 ft 448 kts 323°
2026-05-04 17:36 43.69274 22.61651 26922 ft 450 kts 323°
2026-05-04 17:36 43.71805 22.59082 27209 ft 453 kts 323°
2026-05-04 17:36 43.74344 22.56497 27495 ft 455 kts 323°
2026-05-04 17:36 43.76896 22.53890 27782 ft 457 kts 323°
2026-05-04 17:37 43.79458 22.51269 28077 ft 458 kts 324°
2026-05-04 17:37 43.82015 22.48655 28380 ft 458 kts 324°
2026-05-04 17:37 43.84583 22.46030 28659 ft 459 kts 324°
2026-05-04 17:37 43.87150 22.43396 28995 ft 458 kts 324°
2026-05-04 17:38 43.89700 22.40749 29342 ft 458 kts 321°
2026-05-04 17:38 43.92031 22.37744 29680 ft 458 kts 313°
2026-05-04 17:38 43.94059 22.34360 30041 ft 456 kts 309°
2026-05-04 17:38 43.96042 22.30928 30387 ft 455 kts 309°
2026-05-04 17:39 43.99973 22.24129 30998 ft 453 kts 309°
2026-05-04 17:39 44.01942 22.20721 31301 ft 452 kts 310°
2026-05-04 17:39 44.03911 22.17318 31599 ft 451 kts 310°
2026-05-04 17:40 44.05877 22.13918 31891 ft 450 kts 310°
2026-05-04 17:40 44.07831 22.10535 32221 ft 449 kts 310°
2026-05-04 17:40 44.09782 22.07150 32538 ft 448 kts 310°
2026-05-04 17:40 44.11730 22.03764 32865 ft 446 kts 310°
2026-05-04 17:41 44.13663 22.00402 33187 ft 444 kts 311°
2026-05-04 17:41 44.15585 21.97050 33561 ft 441 kts 311°
2026-05-04 17:41 44.17494 21.93711 33901 ft 440 kts 311°
2026-05-04 17:41 44.19392 21.90380 34206 ft 438 kts 311°
2026-05-04 17:42 44.21260 21.87102 34443 ft 437 kts 311°
2026-05-04 17:42 44.23178 21.83740 34680 ft 437 kts 311°
2026-05-04 17:42 44.25073 21.80424 34877 ft 437 kts 311°
2026-05-04 17:42 44.26967 21.77109 35090 ft 437 kts 311°
2026-05-04 17:43 44.28855 21.73797 35288 ft 437 kts 311°
2026-05-04 17:43 44.30744 21.70476 35515 ft 436 kts 311°
2026-05-04 17:43 44.32627 21.67161 35741 ft 435 kts 311°
2026-05-04 17:43 44.34509 21.63844 35968 ft 435 kts 310°
2026-05-04 17:44 44.36388 21.60530 36077 ft 437 kts 310°
2026-05-04 17:44 44.38284 21.57182 36100 ft 441 kts 310°
2026-05-04 17:44 44.42074 21.50465 36098 ft 444 kts 310°
2026-05-04 17:45 44.45894 21.43686 36096 ft 444 kts 310°
2026-05-04 17:45 44.49717 21.36896 36095 ft 444 kts 310°
2026-05-04 17:46 44.53526 21.30101 36092 ft 444 kts 310°
2026-05-04 17:46 44.57338 21.23268 36110 ft 445 kts 310°
2026-05-04 17:47 44.61129 21.16467 36101 ft 445 kts 310°
2026-05-04 17:47 44.64987 21.09670 36114 ft 445 kts 311°
2026-05-04 17:48 44.68947 21.02999 36116 ft 444 kts 312°
2026-05-04 17:48 44.72913 20.96329 36116 ft 444 kts 312°
2026-05-04 17:49 44.76841 20.89628 36107 ft 444 kts 311°
2026-05-04 17:49 44.80743 20.82894 36115 ft 443 kts 311°
2026-05-04 17:50 44.84610 20.76213 36117 ft 443 kts 311°
2026-05-04 17:50 44.88512 20.69491 36116 ft 442 kts 311°
2026-05-04 17:51 44.92406 20.62780 36103 ft 442 kts 311°
2026-05-04 17:51 44.96283 20.56045 36104 ft 442 kts 311°
2026-05-04 17:52 45.00156 20.49308 36112 ft 442 kts 311°
2026-05-04 17:52 45.04026 20.42563 36107 ft 442 kts 311°
2026-05-04 17:53 45.07892 20.35822 36108 ft 442 kts 311°
2026-05-04 17:53 45.11757 20.29064 36096 ft 441 kts 311°
2026-05-04 17:54 45.15619 20.22299 36103 ft 442 kts 311°
2026-05-04 17:54 45.19478 20.15519 36105 ft 442 kts 311°
2026-05-04 17:55 45.22683 20.09874 36102 ft 442 kts 311°
2026-05-04 17:55 45.26532 20.03082 36091 ft 442 kts 310°
2026-05-04 17:56 45.30380 19.96263 36102 ft 442 kts 310°
2026-05-04 17:56 45.34280 19.89514 36097 ft 442 kts 312°
2026-05-04 17:57 45.38362 19.82975 36097 ft 442 kts 314°
2026-05-04 17:57 45.42470 19.76473 36093 ft 442 kts 313°
2026-05-04 17:58 45.46543 19.69912 36095 ft 442 kts 312°
2026-05-04 17:58 45.50593 19.63290 36094 ft 443 kts 312°
2026-05-04 17:59 45.54635 19.56653 36092 ft 443 kts 312°
2026-05-04 18:00 45.60673 19.46740 36092 ft 443 kts 312°
2026-05-04 18:00 45.64722 19.40091 36091 ft 443 kts 312°
2026-05-04 18:01 45.68767 19.33440 36093 ft 443 kts 312°
2026-05-04 18:01 45.72809 19.26773 36092 ft 443 kts 312°
2026-05-04 18:02 45.78857 19.16741 36082 ft 444 kts 311°
2026-05-04 18:02 45.82859 19.10087 36083 ft 444 kts 311°
2026-05-04 18:03 45.86888 19.03387 36082 ft 443 kts 311°
2026-05-04 18:03 45.90908 18.96685 36082 ft 443 kts 311°
2026-05-04 18:04 45.94709 18.89762 36081 ft 444 kts 306°
2026-05-04 18:05 46.00052 18.78828 36074 ft 444 kts 306°
2026-05-04 18:05 46.03631 18.71511 36077 ft 444 kts 306°
2026-05-04 18:06 46.08946 18.60598 36081 ft 444 kts 306°
2026-05-04 18:06 46.12481 18.53299 36075 ft 444 kts 306°
2026-05-04 18:07 46.15986 18.46046 36075 ft 444 kts 305°
2026-05-04 18:07 46.19515 18.38729 36075 ft 444 kts 305°
2026-05-04 18:08 46.23036 18.31405 36074 ft 444 kts 305°
2026-05-04 18:08 46.26554 18.24086 36069 ft 444 kts 305°
2026-05-04 18:09 46.33574 18.09407 36061 ft 443 kts 305°
2026-05-04 18:10 46.37067 18.02054 36063 ft 443 kts 305°
2026-05-04 18:10 46.40585 17.94644 36059 ft 443 kts 305°
2026-05-04 18:11 46.44083 17.87271 36053 ft 443 kts 305°
2026-05-04 18:11 46.47568 17.79901 36052 ft 443 kts 305°
2026-05-04 18:12 46.51049 17.72513 36052 ft 443 kts 304°
2026-05-04 18:12 46.54496 17.65163 36049 ft 443 kts 304°
2026-05-04 18:13 46.57964 17.57757 36039 ft 443 kts 304°
2026-05-04 18:14 46.63183 17.46593 36034 ft 443 kts 304°
2026-05-04 18:14 46.66637 17.39165 36031 ft 443 kts 304°
2026-05-04 18:15 46.73518 17.24349 36029 ft 443 kts 304°
2026-05-04 18:16 46.76953 17.16901 36030 ft 443 kts 304°
2026-05-04 18:16 46.80384 17.09455 36028 ft 442 kts 304°
2026-05-04 18:17 46.85537 16.98263 36024 ft 442 kts 304°
2026-05-04 18:18 46.90669 16.87046 36017 ft 443 kts 303°
2026-05-04 18:18 46.94077 16.79551 36016 ft 443 kts 303°
2026-05-04 18:19 46.99197 16.68298 36011 ft 443 kts 303°
2026-05-04 18:19 47.02576 16.60812 36016 ft 443 kts 303°
2026-05-04 18:20 47.05972 16.53286 36015 ft 443 kts 303°
2026-05-04 18:20 47.09372 16.45748 36014 ft 443 kts 303°
2026-05-04 18:21 47.12762 16.38190 36010 ft 443 kts 302°
2026-05-04 18:21 47.15615 16.30206 36007 ft 442 kts 293°
2026-05-04 18:22 47.18056 16.21910 36009 ft 442 kts 293°
2026-05-04 18:22 47.20485 16.13672 36006 ft 442 kts 293°
2026-05-04 18:23 47.22924 16.05369 36011 ft 442 kts 293°
2026-05-04 18:23 47.25355 15.97060 36011 ft 442 kts 293°
2026-05-04 18:24 47.27780 15.88735 36009 ft 442 kts 292°
2026-05-04 18:24 47.30186 15.80459 36011 ft 442 kts 292°
2026-05-04 18:25 47.32617 15.72086 36016 ft 442 kts 292°
2026-05-04 18:25 47.35021 15.63760 36014 ft 442 kts 292°
2026-05-04 18:26 47.37414 15.55411 36011 ft 442 kts 292°
2026-05-04 18:26 47.39787 15.47124 36020 ft 442 kts 292°
2026-05-04 18:27 47.42173 15.38768 36013 ft 442 kts 292°
2026-05-04 18:27 47.44553 15.30417 36011 ft 442 kts 292°
2026-05-04 18:28 47.46929 15.22031 36007 ft 441 kts 292°
2026-05-04 18:28 47.49288 15.13655 36010 ft 441 kts 291°
2026-05-04 18:29 47.51645 15.05274 35318 ft 441 kts 291°
2026-05-04 18:29 47.52817 15.01106 34694 ft 438 kts 291°
2026-05-04 18:29 47.53988 14.96949 34085 ft 438 kts 291°
2026-05-04 18:30 47.56341 14.88570 32738 ft 443 kts 291°
2026-05-04 18:30 47.57503 14.84400 32085 ft 447 kts 291°
2026-05-04 18:30 47.58685 14.80143 31447 ft 447 kts 291°
2026-05-04 18:31 47.59878 14.75843 30824 ft 453 kts 291°
2026-05-04 18:31 47.61078 14.71522 30205 ft 456 kts 291°
2026-05-04 18:31 47.62287 14.67162 29516 ft 457 kts 291°
2026-05-04 18:31 47.63498 14.62793 28816 ft 459 kts 291°
2026-05-04 18:32 47.64708 14.58405 28137 ft 462 kts 291°
2026-05-04 18:32 47.65922 14.53982 27461 ft 464 kts 291°
2026-05-04 18:32 47.67141 14.49541 26815 ft 466 kts 291°
2026-05-04 18:32 47.68361 14.45090 26183 ft 468 kts 291°
2026-05-04 18:33 47.69591 14.40602 25560 ft 470 kts 291°
2026-05-04 18:33 47.70827 14.36097 25084 ft 472 kts 291°
2026-05-04 18:33 47.72067 14.31566 24892 ft 474 kts 291°
2026-05-04 18:33 47.73306 14.27023 24928 ft 475 kts 291°
2026-05-04 18:34 47.74542 14.22479 24924 ft 475 kts 291°
2026-05-04 18:34 47.75781 14.17915 24925 ft 476 kts 291°
2026-05-04 18:34 47.77014 14.13355 24925 ft 476 kts 290°
2026-05-04 18:34 47.78246 14.08781 24796 ft 477 kts 291°
2026-05-04 18:35 47.79477 14.04214 24365 ft 475 kts 291°
2026-05-04 18:35 47.80684 13.99722 23954 ft 472 kts 290°
2026-05-04 18:35 47.81897 13.95197 23538 ft 470 kts 290°
2026-05-04 18:35 47.83119 13.90632 23057 ft 468 kts 290°
2026-05-04 18:36 47.84308 13.86201 22584 ft 465 kts 290°
2026-05-04 18:36 47.85501 13.81746 22098 ft 462 kts 290°
2026-05-04 18:36 47.86682 13.77318 21630 ft 459 kts 290°
2026-05-04 18:36 47.87852 13.72920 21166 ft 456 kts 290°
2026-05-04 18:37 47.89013 13.68542 20713 ft 453 kts 290°
2026-05-04 18:37 47.90168 13.64188 20270 ft 450 kts 290°
2026-05-04 18:37 47.91316 13.59867 19835 ft 447 kts 290°
2026-05-04 18:37 47.92452 13.55580 19405 ft 444 kts 289°
2026-05-04 18:38 47.93578 13.51315 18967 ft 441 kts 289°
2026-05-04 18:38 47.94697 13.47058 18538 ft 439 kts 289°
2026-05-04 18:38 47.95802 13.42841 18109 ft 437 kts 289°
2026-05-04 18:38 47.96900 13.38625 17628 ft 434 kts 289°
2026-05-04 18:39 47.97976 13.34501 17156 ft 431 kts 289°
2026-05-04 18:39 47.99062 13.30344 16693 ft 429 kts 289°
2026-05-04 18:39 48.00140 13.26204 16234 ft 426 kts 289°
2026-05-04 18:39 48.01224 13.22037 15758 ft 424 kts 289°
2026-05-04 18:40 48.02276 13.18009 15334 ft 421 kts 289°
2026-05-04 18:40 48.03350 13.13896 14887 ft 418 kts 289°
2026-05-04 18:40 48.04399 13.09848 14453 ft 416 kts 289°
2026-05-04 18:40 48.05437 13.05819 14021 ft 414 kts 288°
2026-05-04 18:41 48.06462 13.01816 13595 ft 411 kts 288°
2026-05-04 18:41 48.07469 12.97890 13126 ft 408 kts 288°
2026-05-04 18:41 48.08478 12.93941 12887 ft 406 kts 287°
2026-05-04 18:41 48.09240 12.89903 12907 ft 403 kts 279°
2026-05-04 18:42 48.09674 12.85845 12931 ft 382 kts 275°
2026-05-04 18:42 48.10036 12.82033 12916 ft 359 kts 275°
2026-05-04 18:42 48.10390 12.78364 12915 ft 354 kts 275°
2026-05-04 18:42 48.10738 12.74693 12914 ft 353 kts 274°
2026-05-04 18:43 48.11079 12.71048 12915 ft 353 kts 274°
2026-05-04 18:43 48.11413 12.67419 12915 ft 353 kts 274°
2026-05-04 18:43 48.11745 12.63783 12915 ft 353 kts 274°
2026-05-04 18:43 48.12078 12.60143 12915 ft 353 kts 274°
2026-05-04 18:44 48.12298 12.57736 12915 ft 353 kts 274°
2026-05-04 18:44 48.12519 12.55333 12915 ft 353 kts 274°
2026-05-04 18:44 48.13072 12.49338 12201 ft 347 kts 274°
2026-05-04 18:44 48.13398 12.45779 11540 ft 344 kts 274°
2026-05-04 18:45 48.13715 12.42263 11158 ft 334 kts 274°
2026-05-04 18:45 48.14021 12.38897 11032 ft 317 kts 274°
2026-05-04 18:45 48.14234 12.35695 10916 ft 300 kts 269°
2026-05-04 18:45 48.14237 12.32648 10768 ft 287 kts 264°
2026-05-04 18:46 48.14068 12.29715 10440 ft 281 kts 261°
2026-05-04 18:46 48.13851 12.26779 10048 ft 279 kts 261°
2026-05-04 18:46 48.13643 12.23952 9921 ft 278 kts 261°
2026-05-04 18:46 48.13432 12.21063 9931 ft 280 kts 261°
2026-05-04 18:47 48.13220 12.18176 9937 ft 280 kts 261°
2026-05-04 18:47 48.13008 12.15259 9937 ft 281 kts 261°
2026-05-04 18:47 48.12798 12.12358 9937 ft 281 kts 261°
2026-05-04 18:47 48.12586 12.09456 9938 ft 280 kts 261°
2026-05-04 18:48 48.12370 12.06555 9936 ft 281 kts 261°
2026-05-04 18:48 48.12152 12.03652 9937 ft 281 kts 261°
2026-05-04 18:48 48.12007 12.01726 9937 ft 281 kts 261°
2026-05-04 18:48 48.11785 11.98799 9942 ft 281 kts 261°
2026-05-04 18:49 48.11562 11.95876 9942 ft 281 kts 261°
2026-05-04 18:49 48.11337 11.92909 9939 ft 281 kts 261°
2026-05-04 18:49 48.11121 11.90056 9939 ft 281 kts 261°
2026-05-04 18:49 48.10889 11.87006 9939 ft 281 kts 261°
2026-05-04 18:50 48.10676 11.84244 9939 ft 282 kts 261°
2026-05-04 18:50 48.10453 11.81334 9939 ft 282 kts 261°
2026-05-04 18:50 48.10229 11.78420 9939 ft 281 kts 261°
2026-05-04 18:50 48.10189 11.75499 9936 ft 285 kts 278°
2026-05-04 18:51 48.10971 11.72765 9940 ft 291 kts 304°
2026-05-04 18:51 48.12509 11.70781 9943 ft 298 kts 330°
2026-05-04 18:51 48.14510 11.69963 9943 ft 303 kts 356°
2026-05-04 18:51 48.16586 11.70502 9953 ft 306 kts 23°
2026-05-04 18:52 48.18431 11.72090 9946 ft 307 kts 33°
2026-05-04 18:52 48.20200 11.73875 9946 ft 307 kts 34°
2026-05-04 18:52 48.21965 11.75684 9946 ft 307 kts 34°
2026-05-04 18:52 48.24055 11.77834 9947 ft 307 kts 35°
2026-05-04 18:53 48.25379 11.79506 9943 ft 306 kts 51°
2026-05-04 18:53 48.26383 11.82278 9955 ft 302 kts 77°
2026-05-04 18:53 48.26725 11.85370 9949 ft 301 kts 86°
2026-05-04 18:53 48.26943 11.88482 9644 ft 298 kts 86°
2026-05-04 18:54 48.27145 11.91563 9226 ft 296 kts 86°
2026-05-04 18:54 48.27344 11.94631 8817 ft 294 kts 86°
2026-05-04 18:54 48.27539 11.97672 8432 ft 292 kts 86°
2026-05-04 18:54 48.27732 12.00700 8044 ft 290 kts 86°
2026-05-04 18:55 48.27923 12.03701 7662 ft 288 kts 86°
2026-05-04 18:55 48.28299 12.09642 6620 ft 281 kts 86°
2026-05-04 18:55 48.28485 12.12590 6101 ft 276 kts 85°
2026-05-04 18:56 48.28703 12.15389 5688 ft 274 kts 77°
2026-05-04 18:56 48.29546 12.17863 5567 ft 263 kts 48°
2026-05-04 18:56 48.31018 12.19354 5423 ft 251 kts 18°
2026-05-04 18:56 48.32695 12.19663 4978 ft 241 kts 359°
2026-05-04 18:57 48.34350 12.19347 4520 ft 239 kts 340°
2026-05-04 18:57 48.35682 12.17913 4205 ft 238 kts 307°
2026-05-04 18:57 48.36509 12.15781 4011 ft 237 kts 297°
2026-05-04 18:57 48.37016 12.13435 4020 ft 240 kts 272°
2026-05-04 18:58 48.36842 12.10978 3995 ft 234 kts 260°
2026-05-04 18:58 48.36603 12.08593 3996 ft 218 kts 262°
2026-05-04 18:58 48.36428 12.06410 3993 ft 205 kts 263°
2026-05-04 18:58 48.36270 12.04297 3999 ft 201 kts 263°
2026-05-04 18:59 48.36116 12.02216 4018 ft 199 kts 263°
2026-05-04 18:59 48.35962 12.00144 3964 ft 199 kts 263°
2026-05-04 18:59 48.35810 11.98115 3785 ft 191 kts 263°
2026-05-04 18:59 48.35661 11.96116 3537 ft 189 kts 263°
2026-05-04 19:00 48.35514 11.94160 3292 ft 188 kts 263°
2026-05-04 19:00 48.35371 11.92259 3052 ft 176 kts 263°
2026-05-04 19:00 48.35240 11.90513 2833 ft 161 kts 264°
2026-05-04 19:00 48.35116 11.88876 2622 ft 155 kts 263°
2026-05-04 19:01 48.35015 11.87529 2453 ft 153 kts 264°
2026-05-04 19:01 48.34884 11.85802 2214 ft 150 kts 264°
2026-05-04 19:01 48.34771 11.84359 2039 ft 147 kts 264°
2026-05-04 19:01 48.34644 11.82844 1821 ft 145 kts 264°
2026-05-04 19:02 48.34533 11.81349 1621 ft 144 kts 264°
2026-05-04 19:02 48.34424 11.79839 1477 ft 140 kts 265°
2026-05-04 19:02 48.34335 11.78592 1461 ft 97 kts 263°
2026-05-04 19:02 48.34325 11.77995 1464 ft 31 kts 291°
2026-05-04 19:03 48.34400 11.77708 1461 ft 31 kts 293°
2026-05-04 19:03 48.34450 11.77542 1466 ft 11 kts 294°
2026-05-04 19:03 48.34457 11.77518 1460 ft 1 kts 294°
2026-05-04 19:03 48.34465 11.77496 1461 ft 5 kts 300°
2026-05-04 19:04 48.34511 11.77441 1465 ft 11 kts 341°
2026-05-04 19:04 48.34594 11.77426 1465 ft 13 kts
2026-05-04 19:04 48.34635 11.77533 1465 ft 14 kts 82°
2026-05-04 19:04 48.34647 11.77684 1463 ft 15 kts 84°
2026-05-04 19:05 48.34658 11.77850 1466 ft 17 kts 84°
2026-05-04 19:05 48.34673 11.78041 1466 ft 19 kts 83°
2026-05-04 19:05 48.34690 11.78245 1467 ft 21 kts 83°
2026-05-04 19:05 48.34706 11.78467 1467 ft 22 kts 83°
2026-05-04 19:06 48.34725 11.78706 1457 ft 24 kts 84°
2026-05-04 19:06 48.34744 11.78959 1467 ft 25 kts 84°
2026-05-04 19:06 48.34764 11.79227 1467 ft 26 kts 83°
2026-05-04 19:06 48.34779 11.79414 1464 ft 11 kts 83°
2026-05-04 19:07 48.34790 11.79531 1467 ft 10 kts 70°
2026-05-04 19:07 48.34855 11.79559 1465 ft 11 kts 352°
2026-05-04 19:07 48.34902 11.79549 1468 ft 0 kts 352°
2026-05-04 19:08 48.34907 11.79548 1468 ft 2 kts 353°
2026-05-04 19:08 48.34947 11.79541 1467 ft 9 kts 353°
2026-05-04 19:09 48.35018 11.79529 1467 ft 11 kts 355°
2026-05-04 19:09 48.35085 11.79583 1462 ft 12 kts 69°
2026-05-04 19:09 48.35099 11.79719 1467 ft 14 kts 82°
2026-05-04 19:09 48.35111 11.79879 1467 ft 17 kts 84°
2026-05-04 19:10 48.35124 11.80068 1462 ft 13 kts 83°
2026-05-04 19:10 48.35160 11.80189 1465 ft 14 kts 19°
2026-05-04 19:10 48.35266 11.80178 1465 ft 17 kts 353°
2026-05-04 19:10 48.35395 11.80150 1467 ft 20 kts 345°
2026-05-04 19:11 48.35487 11.80126 1459 ft 13 kts 352°
2026-05-04 19:11 48.35559 11.80115 1466 ft 6 kts 355°
2026-05-04 19:11 48.35586 11.80161 1460 ft 7 kts 76°
2026-05-04 19:11 48.35593 11.80230 1464 ft 7 kts 83°
2026-05-04 19:12 48.35594 11.80246 1463 ft 0 kts 83°